Tracking 17857 objects as of 29-September-2016
HD Live streaming from Space Station
objects crossing your sky now

BONUM 1

Track BONUM 1 now!
BONUM 1 is classified as:


NORAD ID: 25546
Int'l Code: 1998-068A
Perigee: 36,143.9 km
Apogee: 36,164.3 km
Inclination: 3.7 °
Period: 1,454.5 minutes
Semi major axis: 42525 km
RCS: 0.003 m2 (small)
Launch date: November 22, 1998
Source: Commonwealth of Independent States (former USSR) (CIS)
Launch site: AIR FORCE EASTERN TEST RANGE (AFETR)

Television broadcasting; 8 Ku-band, Siberia or Europe, selected.
Your satellite tracking list
Your tracking list is empty





NASA's NSSDC Master Catalog

Two Line Element Set (TLE):
1 25546U 98068A   16271.19472101  .00000000  00000-0  10000-3 0  9999
2 25546   3.7119  68.5930 0002403 199.0234 161.2964  0.99037871 65377
Source of the keplerian elements: AFSPC

N2YO: 631